TimeMDT,TemperatureF,Dew PointF,Humidity,Sea Level PressureIn,VisibilityMPH,Wind Direction,Wind SpeedMPH,Gust SpeedMPH,PrecipitationIn,Events,Conditions,WindDirDegrees,DateUTC
12:53 AM,55.9,43.0,62,29.69,10.0,ESE,9.2,-,N/A,,Mostly Cloudy,120,2013-10-03 06:53:00
1:53 AM,55.9,42.1,60,29.67,10.0,SE,5.8,-,N/A,,Scattered Clouds,140,2013-10-03 07:53:00
2:53 AM,57.0,43.0,59,29.67,10.0,SE,5.8,-,N/A,,Mostly Cloudy,130,2013-10-03 08:53:00
3:53 AM,57.0,43.0,59,29.70,10.0,WNW,9.2,-,N/A,,Mostly Cloudy,290,2013-10-03 09:53:00
4:53 AM,55.0,41.0,59,29.76,10.0,North,15.0,18.4,N/A,,Mostly Cloudy,350,2013-10-03 10:53:00
5:53 AM,53.1,41.0,64,29.80,10.0,North,5.8,-,N/A,,Mostly Cloudy,360,2013-10-03 11:53:00
6:53 AM,53.1,36.0,52,29.81,10.0,NW,6.9,-,N/A,,Mostly Cloudy,320,2013-10-03 12:53:00
7:53 AM,52.0,33.1,49,29.82,10.0,WNW,12.7,-,N/A,,Mostly Cloudy,290,2013-10-03 13:53:00
8:53 AM,51.1,30.9,46,29.84,10.0,NW,11.5,-,N/A,,Mostly Cloudy,310,2013-10-03 14:53:00
9:53 AM,51.1,34.0,52,29.86,10.0,NNW,15.0,-,N/A,,Mostly Cloudy,340,2013-10-03 15:53:00
10:53 AM,51.1,32.0,48,29.87,10.0,North,10.4,-,N/A,,Mostly Cloudy,350,2013-10-03 16:53:00
11:53 AM,50.0,30.9,48,29.89,10.0,North,8.1,-,0.00,,Mostly Cloudy,10,2013-10-03 17:53:00
12:53 PM,52.0,26.1,37,29.89,10.0,WNW,9.2,17.3,N/A,,Mostly Cloudy,300,2013-10-03 18:53:00
1:53 PM,54.0,23.0,30,29.89,10.0,WNW,11.5,18.4,N/A,,Mostly Cloudy,300,2013-10-03 19:53:00
2:53 PM,53.1,23.0,31,29.90,10.0,West,10.4,20.7,N/A,,Mostly Cloudy,280,2013-10-03 20:53:00
3:53 PM,52.0,24.1,34,29.92,10.0,NW,19.6,28.8,N/A,,Mostly Cloudy,320,2013-10-03 21:53:00
4:53 PM,51.1,21.0,31,29.93,10.0,NW,6.9,-,0.00,Rain,Light Rain,320,2013-10-03 22:53:00
5:53 PM,51.1,21.9,32,29.95,10.0,WNW,17.3,28.8,0.00,,Mostly Cloudy,300,2013-10-03 23:53:00
6:12 PM,48.2,28.4,46,30.01,10.0,Variable,6.9,17.3,0.00,,Mostly Cloudy,0,2013-10-04 00:12:00
6:42 PM,50.0,26.6,40,30.02,10.0,NNW,20.7,26.5,0.00,,Mostly Cloudy,340,2013-10-04 00:42:00
6:53 PM,48.9,27.0,43,29.97,10.0,NW,16.1,25.3,0.00,,Mostly Cloudy,320,2013-10-04 00:53:00
7:53 PM,48.0,27.0,44,29.99,10.0,NNW,16.1,25.3,N/A,,Mostly Cloudy,330,2013-10-04 01:53:00
8:53 PM,48.0,28.0,46,29.99,10.0,NW,9.2,-,N/A,,Mostly Cloudy,310,2013-10-04 02:53:00
10:53 PM,46.9,30.9,54,30.00,10.0,West,12.7,-,0.00,,Mostly Cloudy,260,2013-10-04 04:53:00
11:41 PM,42.8,35.6,76,30.07,5.0,WNW,15.0,-,0.00,Rain,Light Rain,290,2013-10-04 05:41:00
11:53 PM,42.1,36.0,79,30.03,5.0,WNW,11.5,-,0.03,Rain,Light Rain,290,2013-10-04 05:53:00